Loisir ou Compétition : Rejoignez un Club de la Fédération

Résultats

CHAMPIONNAT DE FRANCE CADETS - COURSE NATIONALE MINIMES

MEAUDRE

FS Hommes

Jury de Compétition

Délégué Technique :
MIGNEREY PIERRE (DA)
D.T. Adjoint :
 
Dir. Epreuve :
VALCESCHINI ALAIN (DA)

Caractéristiques de la Piste

Piste :
Piste de Replis
Distance :
5 km
Point Haut :
1018 m
Point Bas :
1000 m
Montée Tot. :
146 m
Montée Max. :
17 m
Homologation :
-1

Pénalité Appliquée :
 
Coefficient :
 

Catégorie :
MIN
Style :
C

18/03/06 - FNAM0132

CltDosClt/CatCodeAnNom PrénomComClubTempsEcartPoints
12781/MINFFS22942811992VERNEY CHARLYMBSC GD BORNAN16:33.300:00.0
22562/MINFFS23227351992SUTTER YOHANNMJSC MORBIER16:59.600:26.3
32553/MINFFS23520201992BERNIER HUGODACS VILLARD17:15.100:41.8
42824/MINFFS26178321992BUTTIN CLEMENTSASC ARECHES17:32.700:59.4
52635/MINFFS26239041992LEPRINCE FAVEREAUX BAPTISDAUS AUTRANNAI17:33.901:00.6
62386/MINFFS26140441992JACQUOT FREDERICMJBOIS D'AMONT17:39.601:06.3
72547/MINFFS26136341992SIFFERLEN FLORIANMVSC RANSPACH17:42.601:09.3
83028/MINFFS26019601992GRENIER CLEMENTMBCS ARGENTIER17:51.101:17.8
92819/MINFFS26140641992DUPERREX LUCASMBCS CHAMONIX18:05.901:32.6
1025110/MINFFS26167611992BOT KEVINSASC MENUIRES18:13.401:40.1
1126611/MINFFS26020311992BELLET NOEAPSERRE CHEVAL18:17.201:43.9
1225012/MINFFS23261751992GUIGONNET LOICSASC MENUIRES18:21.001:47.7
1330013/MINFFS26020151992JOGUET MATHIEUSASC ARECHES18:28.801:55.5
1424414/MINFFS26047011992BARTHOLOME SEBASTIENSAC.S. GD COIN18:36.202:02.9
1525815/MINFFS26239571992VERNAZ PIEMONT JULIENMBSC ABONDANCE18:44.602:11.3
1625716/MINFFS26241301992ROBERT JULIENMJES SAUGETTE18:45.102:11.8
1724817/MINFFS26197701992JEANNINGROS LOICMJCSR PONTARLI18:47.102:13.8
1830718/MINFFS26195941992POINOT NICOLASMJST LAURENT18:51.102:17.8
1928519/MINFFS22609771992BRUILLOT MAXIMEMJUS LAMOURA18:53.402:20.1
2030820/MINFFS23269991992SAILLET COLINSACN REVARD18:55.302:22.0
2124921/MINFFS22892861992BOTTA ANTOINEAPES VALLOUISE18:59.902:26.6
2227922/MINFFS26244371992BACKSCHEIDER ADRIENMVGERARDMER SN19:00.902:27.6
2324623/MINFFS22651241992VIARD GAUDIN BRICESASC ARECHES19:08.902:35.6
2427524/MINFFS26140661992VOUILLAMOZ SYLVAINMBCS CHAMONIX19:09.602:36.3
2529125/MINFFS26132131992PERRILLAT LUCMBSC GD BORNAN19:14.302:41.0
2623426/MINFFS26200361992NICOD JULIENMJAS VERRIERES19:15.302:42.0
2725227/MINFFS26015161992GEGOUT DORIANMVGERARDMER SN19:15.502:42.2
2830628/MINFFS22567191992ANDRE SYLVAINAPGAP-BAYARD19:18.702:45.4
2926429/MINFFS23278771992CUNAT FLORIANMVVAGNEY ROCHE19:22.002:48.7
3024030/MINFFS23245301992AGNELLET GERARDMBCS LA CLUSAZ19:22.602:49.3
3127731/MINFFS22975581992BADONNEL VICTORMVSC XONRUPT19:24.302:51.0
3229032/MINFFS23568691992HUDRY QUENTINSASC MENUIRES19:27.502:54.2
3325333/MINFFS23214691992JACQUELIN AUGUSTINDACS VILLARD19:37.903:04.6
3427434/MINFFS26033811992TRABALON JULIANAPGAP-BAYARD19:39.203:05.9
3526235/MINFFS23268781992GROSSET BAPTISTESAES BESSANS19:44.603:11.3
3628836/MINFFS26223061992CENNI HUGUESCESC MTAIGOUAL19:45.103:11.8
3728737/MINFFS23261761992CHATELLET VINCENTSASC MENUIRES19:49.203:15.9
3823538/MINFFS26140691992CLAUDON MAXIMEMBCS CHAMONIX19:56.303:23.0
3923639/MINFFS26208691992MATHIEU VINCENTDASNGR OISANS19:57.103:23.8
3924739/MINFFS26032771992GUEYTE MATHIEUAPGAP-BAYARD19:57.103:23.8
4124241/MINFFS26142991992BERNARD PIERRE JEANAPSERRE CHEVAL19:58.103:24.8
4226942/MINFFS26012251992LEGRAND MATHIEUPOSC AZUN19:58.603:25.3
4329843/MINFFS26155481992AMOUDRUZ ANTHONYMBNORD.TANINGE20:02.403:29.1
4428044/MINFFS26155361992PRONNIER DAMIENMBSC GD BORNAN20:07.603:34.3
4526745/MINFFS26061511992TERRAZ EDENPESC NORDIC 6620:09.703:36.4
4628446/MINFFS26132161992PESSEY OSCARMBSC GD BORNAN20:10.303:37.0
4730547/MINFFS26020331992MASSET THIBAULTAPSERRE CHEVAL20:18.303:45.0
4830348/MINFFS26034071992QUEINEC DEWIAPSC CEILLAC20:24.203:50.9
4927049/MINFFS26132121992MISSILLIER QUENTINMBSC GD BORNAN20:24.303:51.0
5026150/MINFFS26219451992ARMINJON MICKAELMBNORD.TANINGE20:27.603:54.3
5124351/MINFFS26208251992TARRADE TRISTANLYSC LOMPNES20:29.903:56.6
5228952/MINFFS26134321992MENOLI JONATHANMBSC D'AGY20:30.303:57.0
5326853/MINFFS26029361992GIBELLO LOISAPMTGVE V.CLAR20:34.204:00.9
5429354/MINFFS26007211992BAL GUILLAUMESASC BOZEL20:35.104:01.8
5524155/MINFFS26059161992SOUETRE GOULWENDAUS AUTRANNAI20:46.404:13.1
5629656/MINFFS26036251992LOUZON LUDOVICDACS VILLARD20:49.504:16.2
5729957/MINFFS26022431992MOYA SEBASTIENAPAS EDELWEISS20:52.504:19.2
5827358/MINFFS23551681992BEGARIE LOUISPECAPCONF20:53.604:20.3
5830158/MINFFS26253581992DUPERTHUY JASONMBSC CONTAMINE20:53.604:20.3
6027660/MINFFS26019731992KHELIFI MHEDIPESC NORDIC 6621:03.704:30.4
6126561/MINFFS23278811992CLAUDEL FLORIANMVVAGNEY ROCHE21:04.304:31.0
6225962/MINFFS26169381992COUDURIER JULIENMBNORD.TANINGE21:07.104:33.8
6329463/MINFFS23519461992PIQUE GAETANDAUS AUTRANNAI21:37.605:04.3
6427264/MINFFS26007221992OLLINET QUENTINSASC BOZEL21:46.305:13.0
6530465/MINFFS26238961992BARTHELEMY SIMONDASN CHARTROUS21:51.205:17.9
6629766/MINFFS23261771992VARRAZ ALEXISSASC MENUIRES21:55.205:21.9
6727167/MINFFS26135251992GUICHARD ANDYPESC NORDIC 6621:58.005:24.7
6828668/MINFFS26048311992PUIG ADRIENPESC NORDIC 6622:04.005:30.7
6929569/MINFFS23208611992RUEL ANTONINDACS VILLARD22:27.505:54.2
7028370/MINFFS26200741992RIXTE GABRIELCESC MARGERIDE22:53.206:19.9
7124571/MINFFS23517651992FORTE LOICDASNGR OISANS23:28.606:55.3
7226072/MINFFS26278241992OTTAVI JASONDAGUC SPORTS N24:33.308:00.0
7329273/MINFFS26008941992TISON JULESDAGUC SPORTS N24:56.208:22.9
7423974/MINFFS23208651992ARNAUD NICOLASDACS VILLARD26:00.409:27.1
Non partants
237FFS26196551992MOREAU MEHDIDACS VILLARD